ONEWEB-0053, 45157

Orbit data source: Space-Track

ONEWEB-0053, 45157 is a payload satellite owned by One Web (UK) in LEO that was launched on Thu, 06 Feb 2020 UTC via a SOYUZ-2-1B launch vehicle from the Tyuratam Missile And Space Complex (TTMTR). Payloads include a variety of satellites, spacecraft, and rockets equipped with specific instruments for various scientific and technological missions. These include communications satellites like Starlink; space stations such as the ISS; scientific satellites like the Hubble; Earth observation satellites from companies like Planet Labs, Umbra, and HawkEye 360; GPS; miniature CubeSats for education and research; and military/defense satellites.

Loading next visibility...
ONEWEB-0053 details
Identifier
45157, 2020-008AC
Orbit
LEO
Last TLE update1 day ago
Origin
Flag of UKOne Web (UK)
ManufacturerOne Web
MissionOperational Commercial Communications
Bus & MotorARROW, Unknown motor
Mass148 kg wet, ~140 kg dry
Launch date (UTC)
2020-02-06 (5 years ago)
Launch vehicle
SOYUZ-2-1B
Launch site
Tyuratam Missile And Space Complex (TTMTR)
Object type
Payload
Rocket body
Debris
Shape & HBRTrap Box + 2 Pan, 5 m
Radar Cross Section2.957 m², Large (>1 m²)

Expand to show TLE details & history

TLE from 1 day ago
0 ONEWEB-0053
1 45157U 20008AC  24360.42206186 -.00000336  00000-0 -99746-3 0  9998
2 45157  87.8898 143.6080 0001260  86.6152 273.5119 13.10372182237357
Epoch: 2024-12-25T10:07Z
Definitive object data (Epoch: 2024-12-25T10:07:46.144Z)
Latitude-0.00008°
Longitude-102.75031°
Altitude1,224.549 km
Speed7.242 km/s
True Right ascension09h 34m 25s
True Declination0° 00' 00"
Sunlit
Object was in full shadow at TLE epoch
Visualization TLE readout
Latitude13.51587°
Longitude76.54086°
Altitude1,223.751 km
Speed7.244 km/s
Apparent Right ascension21h 46m 34s
Apparent Declination-10° 39' 00"
Sunlit
Object is in daylight
Visualization observer readout
Local Sidereal Time10:09:13
Azimuth11.282° NNE
Elevation-60.306°
Doppler factor1
Orbital elements
Apogee altitude1,219.797 km
Perigee altitude1,217.882 km
Semi-major axis7,596.976 km
Eccentricity0.000126
Inclination87.8898°
RAAN143.608°
Arg. of periapsis86.6152°
True anomaly273.49749°
Mean anomaly273.5119°
Eccentric anomaly273.50469°
Mean motion3.2778 °/min
BSTAR-0.00099746
Orbital period109.83 mins
Loading maneuver chart data...
Loading historical data...
Loading historical data...
Loading historical data...
Loading historical data...
Loading historical data...
Loading historical data...
Loading historical data...

ONEWEB-0053 Visibility forecast

Observer location: undefined°, undefined

Span
Click to sort rows by Start time (UTC) header in descending order
Start Az.
Max El. time (UTC)
Max El. Az.
Max El.
End time (UTC)
End Az.
8 mins2024-12-26 11:55:58.538Z249.48° W2024-12-26 11:59:58.538Z284.822° WNW17.292°2024-12-26 12:03:58.538Z321.046° NNW
12 mins2024-12-26 21:33:58.538Z9.129° NNE2024-12-26 21:39:58.538Z101.528° ESE41.625°2024-12-26 21:45:58.538Z165.98° S
9 mins2024-12-26 23:24:58.538Z323.471° NNW2024-12-26 23:28:58.538Z284.179° WNW21.285°2024-12-26 23:33:58.538Z238.796° WSW
13 mins2024-12-27 09:52:58.538Z167.165° S2024-12-27 09:58:58.538Z75.924° E43.4°2024-12-27 10:05:58.538Z5.19° NNE
|